Time,TemperatureF,DewpointF,PressureIn,WindDirection,WindDirectionDegrees,WindSpeedMPH,WindSpeedGustMPH,Humidity,HourlyPrecipIn,Conditions,Clouds,dailyrainin,SoftwareType,DateUTC
2013-01-20 00:03:00,16.0,11.5,26.93,North,0,0.0,0.0,82,0.00,,,0.00,VWS V14.01,2013-01-20 08:03:00,
2013-01-20 00:08:00,15.6,11.1,26.93,North,0,0.0,0.0,82,0.00,,,0.00,VWS V14.01,2013-01-20 08:08:00,
2013-01-20 00:13:00,15.1,10.3,26.93,North,0,0.0,0.0,81,0.00,,,0.00,VWS V14.01,2013-01-20 08:13:00,
2013-01-20 00:18:00,15.8,11.3,26.93,North,0,0.0,0.0,82,0.00,,,0.00,VWS V14.01,2013-01-20 08:18:00,
2013-01-20 00:23:00,16.0,11.5,26.93,North,0,0.0,0.0,82,0.00,,,0.00,VWS V14.01,2013-01-20 08:23:00,
2013-01-20 00:28:00,15.3,10.8,26.93,North,0,0.0,0.0,82,0.00,,,0.00,VWS V14.01,2013-01-20 08:28:00,
2013-01-20 00:33:00,15.1,10.6,26.93,North,0,0.0,0.0,82,0.00,,,0.00,VWS V14.01,2013-01-20 08:33:00,
2013-01-20 00:38:00,15.6,11.4,26.93,North,0,0.0,0.0,83,0.00,,,0.00,VWS V14.01,2013-01-20 08:38:00,
2013-01-20 00:43:00,15.1,10.9,26.93,North,0,0.0,0.0,83,0.00,,,0.00,VWS V14.01,2013-01-20 08:43:00,
2013-01-20 00:48:00,15.1,10.9,26.93,North,0,0.0,0.0,83,0.00,,,0.00,VWS V14.01,2013-01-20 08:48:00,
2013-01-20 00:53:00,14.2,9.7,26.93,North,0,0.0,0.0,82,0.00,,,0.00,VWS V14.01,2013-01-20 08:53:00,
2013-01-20 00:58:00,13.6,9.2,26.93,North,0,0.0,0.0,82,0.00,,,0.00,VWS V14.01,2013-01-20 08:58:00,
2013-01-20 01:03:00,13.6,9.2,26.93,North,0,0.0,0.0,82,0.00,,,0.00,VWS V14.01,2013-01-20 09:03:00,
2013-01-20 01:08:00,13.3,8.8,26.93,North,0,0.0,0.0,82,0.00,,,0.00,VWS V14.01,2013-01-20 09:08:00,
2013-01-20 01:13:00,13.5,9.0,26.93,North,0,0.0,0.0,82,0.00,,,0.00,VWS V14.01,2013-01-20 09:13:00,
2013-01-20 01:18:00,14.5,11.1,26.93,North,0,0.0,0.0,86,0.00,,,0.00,VWS V14.01,2013-01-20 09:18:00,
2013-01-20 01:23:00,15.4,12.3,26.93,North,0,0.0,0.0,87,0.00,,,0.00,VWS V14.01,2013-01-20 09:23:00,
2013-01-20 01:28:00,15.4,12.3,26.93,North,0,0.0,0.0,87,0.00,,,0.00,VWS V14.01,2013-01-20 09:28:00,
2013-01-20 01:33:00,15.4,12.3,26.93,North,0,0.0,0.0,87,0.00,,,0.00,VWS V14.01,2013-01-20 09:33:00,
2013-01-20 01:38:00,14.4,10.7,26.93,North,0,0.0,0.0,85,0.00,,,0.00,VWS V14.01,2013-01-20 09:38:00,
2013-01-20 01:43:00,14.4,10.7,26.93,North,0,0.0,0.0,85,0.00,,,0.00,VWS V14.01,2013-01-20 09:43:00,
2013-01-20 01:48:00,13.5,9.8,26.93,North,0,0.0,0.0,85,0.00,,,0.00,VWS V14.01,2013-01-20 09:48:00,
2013-01-20 01:53:00,12.9,9.3,26.96,North,0,0.0,0.0,85,0.00,,,0.00,VWS V14.01,2013-01-20 09:53:00,
2013-01-20 01:58:00,12.9,9.3,26.96,North,0,0.0,0.0,85,0.00,,,0.00,VWS V14.01,2013-01-20 09:58:00,
2013-01-20 02:03:00,13.1,9.4,26.96,North,0,0.0,0.0,85,0.00,,,0.00,VWS V14.01,2013-01-20 10:03:00,
2013-01-20 02:08:00,12.9,9.3,26.96,North,0,0.0,0.0,85,0.00,,,0.00,VWS V14.01,2013-01-20 10:08:00,
2013-01-20 02:13:00,12.9,9.3,26.96,North,0,0.0,0.0,85,0.00,,,0.00,VWS V14.01,2013-01-20 10:13:00,
2013-01-20 02:18:00,12.9,9.3,26.96,North,0,0.0,0.0,85,0.00,,,0.00,VWS V14.01,2013-01-20 10:18:00,
2013-01-20 02:23:00,12.9,9.3,26.96,North,0,0.0,0.0,85,0.00,,,0.00,VWS V14.01,2013-01-20 10:23:00,
2013-01-20 02:28:00,14.2,11.0,26.96,North,0,0.0,0.0,87,0.00,,,0.00,VWS V14.01,2013-01-20 10:28:00,
2013-01-20 02:33:00,14.5,11.6,26.96,North,0,0.0,0.0,88,0.00,,,0.00,VWS V14.01,2013-01-20 10:33:00,
2013-01-20 02:38:00,14.9,12.2,26.96,North,0,0.0,0.0,89,0.00,,,0.00,VWS V14.01,2013-01-20 10:38:00,
2013-01-20 02:43:00,14.9,12.2,26.96,North,0,0.0,0.0,89,0.00,,,0.00,VWS V14.01,2013-01-20 10:43:00,
2013-01-20 02:48:00,13.1,10.2,26.96,North,0,0.0,0.0,88,0.00,,,0.00,VWS V14.01,2013-01-20 10:48:00,
2013-01-20 02:53:00,12.7,9.9,26.96,North,0,0.0,0.0,88,0.00,,,0.00,VWS V14.01,2013-01-20 10:53:00,
2013-01-20 02:58:00,13.1,10.2,26.96,North,0,0.0,0.0,88,0.00,,,0.00,VWS V14.01,2013-01-20 10:58:00,
2013-01-20 03:03:00,13.1,10.2,26.96,North,0,0.0,0.0,88,0.00,,,0.00,VWS V14.01,2013-01-20 11:03:00,
2013-01-20 03:08:00,13.5,10.6,26.96,North,0,0.0,0.0,88,0.00,,,0.00,VWS V14.01,2013-01-20 11:08:00,
2013-01-20 03:13:00,12.4,9.5,26.96,North,0,0.0,0.0,88,0.00,,,0.00,VWS V14.01,2013-01-20 11:13:00,
2013-01-20 03:18:00,12.6,9.7,26.96,North,0,0.0,0.0,88,0.00,,,0.00,VWS V14.01,2013-01-20 11:18:00,
2013-01-20 03:23:00,12.9,10.0,26.96,North,0,0.0,0.0,88,0.00,,,0.00,VWS V14.01,2013-01-20 11:23:00,
2013-01-20 03:28:00,12.4,9.5,26.96,North,0,0.0,0.0,88,0.00,,,0.00,VWS V14.01,2013-01-20 11:28:00,
2013-01-20 03:33:00,12.4,9.5,26.96,North,0,0.0,0.0,88,0.00,,,0.00,VWS V14.01,2013-01-20 11:33:00,
2013-01-20 03:38:00,10.2,7.4,26.96,North,0,0.0,0.0,88,0.00,,,0.00,VWS V14.01,2013-01-20 11:38:00,
2013-01-20 03:43:00,10.9,8.1,26.96,North,0,0.0,0.0,88,0.00,,,0.00,VWS V14.01,2013-01-20 11:43:00,
2013-01-20 03:48:00,11.3,8.4,26.96,North,0,0.0,0.0,88,0.00,,,0.00,VWS V14.01,2013-01-20 11:48:00,
2013-01-20 03:53:00,11.8,9.0,26.96,North,0,0.0,0.0,88,0.00,,,0.00,VWS V14.01,2013-01-20 11:53:00,
2013-01-20 03:58:00,11.8,9.0,26.96,North,0,0.0,0.0,88,0.00,,,0.00,VWS V14.01,2013-01-20 11:58:00,
2013-01-20 04:03:00,12.2,9.3,26.96,North,0,0.0,0.0,88,0.00,,,0.00,VWS V14.01,2013-01-20 12:03:00,
2013-01-20 04:08:00,12.0,9.2,26.96,North,0,0.0,0.0,88,0.00,,,0.00,VWS V14.01,2013-01-20 12:08:00,
2013-01-20 04:13:00,11.3,8.4,26.96,North,0,0.0,0.0,88,0.00,,,0.00,VWS V14.01,2013-01-20 12:13:00,
2013-01-20 04:18:00,11.3,8.4,26.96,North,0,0.0,0.0,88,0.00,,,0.00,VWS V14.01,2013-01-20 12:18:00,
2013-01-20 04:23:00,10.9,8.1,26.96,North,0,0.0,0.0,88,0.00,,,0.00,VWS V14.01,2013-01-20 12:23:00,
2013-01-20 04:28:00,10.9,8.1,26.96,North,0,0.0,0.0,88,0.00,,,0.00,VWS V14.01,2013-01-20 12:28:00,
2013-01-20 04:33:00,12.0,9.2,26.96,North,0,0.0,0.0,88,0.00,,,0.00,VWS V14.01,2013-01-20 12:33:00,
2013-01-20 04:38:00,12.2,9.3,26.96,North,0,0.0,0.0,88,0.00,,,0.00,VWS V14.01,2013-01-20 12:38:00,
2013-01-20 04:43:00,12.7,9.9,26.96,North,0,0.0,0.0,88,0.00,,,0.00,VWS V14.01,2013-01-20 12:43:00,
2013-01-20 04:48:00,12.2,9.3,26.96,North,0,0.0,0.0,88,0.00,,,0.00,VWS V14.01,2013-01-20 12:48:00,
2013-01-20 04:53:00,11.7,8.8,26.96,North,0,0.0,0.0,88,0.00,,,0.00,VWS V14.01,2013-01-20 12:53:00,
2013-01-20 04:58:00,11.8,9.0,26.96,North,0,0.0,0.0,88,0.00,,,0.00,VWS V14.01,2013-01-20 12:58:00,
2013-01-20 05:02:00,11.8,9.0,26.96,North,0,0.0,0.0,88,0.00,,,0.00,VWS V14.01,2013-01-20 13:02:00,
2013-01-20 05:07:00,13.3,10.4,26.96,North,0,0.0,0.0,88,0.00,,,0.00,VWS V14.01,2013-01-20 13:07:00,
2013-01-20 05:12:00,13.6,10.8,26.96,North,0,0.0,0.0,88,0.00,,,0.00,VWS V14.01,2013-01-20 13:12:00,
2013-01-20 05:17:00,14.2,11.5,26.96,North,0,0.0,0.0,89,0.00,,,0.00,VWS V14.01,2013-01-20 13:17:00,
2013-01-20 05:23:00,14.2,11.5,26.96,North,0,0.0,0.0,89,0.00,,,0.00,VWS V14.01,2013-01-20 13:23:00,
2013-01-20 05:28:00,14.0,11.4,26.96,North,0,0.0,0.0,89,0.00,,,0.00,VWS V14.01,2013-01-20 13:28:00,
2013-01-20 05:33:00,12.9,10.3,26.96,North,0,0.0,0.0,89,0.00,,,0.00,VWS V14.01,2013-01-20 13:33:00,
2013-01-20 05:38:00,12.7,10.1,26.96,North,0,0.0,0.0,89,0.00,,,0.00,VWS V14.01,2013-01-20 13:38:00,
2013-01-20 05:43:00,12.0,9.4,26.96,North,0,0.0,0.0,89,0.00,,,0.00,VWS V14.01,2013-01-20 13:43:00,
2013-01-20 05:48:00,11.5,8.9,26.96,North,0,0.0,0.0,89,0.00,,,0.00,VWS V14.01,2013-01-20 13:48:00,
2013-01-20 05:53:00,11.3,8.7,26.96,North,0,0.0,0.0,89,0.00,,,0.00,VWS V14.01,2013-01-20 13:53:00,
2013-01-20 05:58:00,10.4,7.8,26.96,North,0,0.0,0.0,89,0.00,,,0.00,VWS V14.01,2013-01-20 13:58:00,
2013-01-20 06:03:00,10.8,8.2,26.96,North,0,0.0,0.0,89,0.00,,,0.00,VWS V14.01,2013-01-20 14:03:00,
2013-01-20 06:08:00,11.1,8.5,26.96,North,0,0.0,0.0,89,0.00,,,0.00,VWS V14.01,2013-01-20 14:08:00,
2013-01-20 06:13:00,11.5,8.9,26.96,North,0,0.0,0.0,89,0.00,,,0.00,VWS V14.01,2013-01-20 14:13:00,
2013-01-20 06:18:00,12.0,9.4,26.96,North,0,0.0,0.0,89,0.00,,,0.00,VWS V14.01,2013-01-20 14:18:00,
2013-01-20 06:23:00,12.9,10.3,26.96,North,0,0.0,0.0,89,0.00,,,0.00,VWS V14.01,2013-01-20 14:23:00,
2013-01-20 06:28:00,14.2,11.8,26.96,North,0,0.0,0.0,90,0.00,,,0.00,VWS V14.01,2013-01-20 14:28:00,
2013-01-20 06:33:00,14.4,12.0,26.96,North,0,0.0,0.0,90,0.00,,,0.00,VWS V14.01,2013-01-20 14:33:00,
2013-01-20 06:38:00,14.4,12.0,26.96,North,0,0.0,0.0,90,0.00,,,0.00,VWS V14.01,2013-01-20 14:38:00,
2013-01-20 06:43:00,12.0,9.4,26.96,North,0,0.0,0.0,89,0.00,,,0.00,VWS V14.01,2013-01-20 14:43:00,
2013-01-20 06:48:00,11.3,8.7,26.96,North,0,0.0,0.0,89,0.00,,,0.00,VWS V14.01,2013-01-20 14:48:00,
2013-01-20 06:53:00,11.3,8.7,26.99,North,0,0.0,0.0,89,0.00,,,0.00,VWS V14.01,2013-01-20 14:53:00,
2013-01-20 06:58:00,10.0,7.4,26.99,North,0,0.0,0.0,89,0.00,,,0.00,VWS V14.01,2013-01-20 14:58:00,
2013-01-20 07:03:00,10.0,7.4,26.99,North,0,0.0,0.0,89,0.00,,,0.00,VWS V14.01,2013-01-20 15:03:00,
2013-01-20 07:08:00,8.8,6.2,26.99,North,0,0.0,0.0,89,0.00,,,0.00,VWS V14.01,2013-01-20 15:08:00,
2013-01-20 07:13:00,8.4,5.8,26.99,North,0,0.0,0.0,89,0.00,,,0.00,VWS V14.01,2013-01-20 15:13:00,
2013-01-20 07:18:00,9.3,6.7,26.99,North,0,0.0,0.0,89,0.00,,,0.00,VWS V14.01,2013-01-20 15:18:00,
2013-01-20 07:23:00,9.3,6.7,26.99,North,0,0.0,0.0,89,0.00,,,0.00,VWS V14.01,2013-01-20 15:23:00,
2013-01-20 07:28:00,10.4,7.8,26.99,North,0,0.0,0.0,89,0.00,,,0.00,VWS V14.01,2013-01-20 15:28:00,
2013-01-20 07:33:00,11.1,8.5,26.99,North,0,0.0,0.0,89,0.00,,,0.00,VWS V14.01,2013-01-20 15:33:00,
2013-01-20 07:36:00,11.1,8.5,26.99,North,0,0.0,0.0,89,0.00,,,0.00,VWS V14.01,2013-01-20 15:36:00,
2013-01-20 07:38:00,11.1,8.5,26.99,North,0,0.0,0.0,89,0.00,,,0.00,VWS V14.01,2013-01-20 15:38:00,
2013-01-20 07:43:00,10.2,7.6,26.99,North,0,0.0,0.0,89,0.00,,,0.00,VWS V14.01,2013-01-20 15:43:00,
2013-01-20 07:48:00,10.0,7.4,26.99,North,0,0.0,0.0,89,0.00,,,0.00,VWS V14.01,2013-01-20 15:48:00,
2013-01-20 07:53:00,9.5,6.9,26.96,North,0,0.0,0.0,89,0.00,,,0.00,VWS V14.01,2013-01-20 15:53:00,
2013-01-20 07:58:00,9.7,7.1,26.96,North,0,0.0,0.0,89,0.00,,,0.00,VWS V14.01,2013-01-20 15:58:00,
2013-01-20 08:03:00,10.2,7.6,26.99,North,0,0.0,0.0,89,0.00,,,0.00,VWS V14.01,2013-01-20 16:03:00,
2013-01-20 08:08:00,10.6,8.0,26.99,North,0,0.0,0.0,89,0.00,,,0.00,VWS V14.01,2013-01-20 16:08:00,
2013-01-20 08:13:00,15.3,12.9,26.99,North,0,0.0,0.0,90,0.00,,,0.00,VWS V14.01,2013-01-20 16:13:00,
2013-01-20 08:18:00,18.3,15.9,26.99,North,0,0.0,0.0,90,0.00,,,0.00,VWS V14.01,2013-01-20 16:18:00,
2013-01-20 08:23:00,18.1,14.7,26.99,North,0,0.0,0.0,86,0.00,,,0.00,VWS V14.01,2013-01-20 16:23:00,
2013-01-20 08:28:00,18.1,14.7,26.99,North,0,0.0,0.0,86,0.00,,,0.00,VWS V14.01,2013-01-20 16:28:00,
2013-01-20 08:33:00,15.8,10.7,26.99,North,0,0.0,0.0,80,0.00,,,0.00,VWS V14.01,2013-01-20 16:33:00,
2013-01-20 08:38:00,15.8,10.7,26.99,North,0,0.0,0.0,80,0.00,,,0.00,VWS V14.01,2013-01-20 16:38:00,
2013-01-20 08:43:00,14.9,9.3,26.99,North,0,0.0,0.0,78,0.00,,,0.00,VWS V14.01,2013-01-20 16:43:00,
2013-01-20 08:48:00,15.4,9.8,26.99,North,0,0.0,0.0,78,0.00,,,0.00,VWS V14.01,2013-01-20 16:48:00,
2013-01-20 08:53:00,17.8,12.9,26.99,North,0,0.0,0.0,81,0.00,,,0.00,VWS V14.01,2013-01-20 16:53:00,
2013-01-20 08:58:00,17.8,12.9,26.99,North,0,0.0,0.0,81,0.00,,,0.00,VWS V14.01,2013-01-20 16:58:00,
2013-01-20 09:03:00,20.3,15.7,26.99,North,0,0.0,0.0,82,0.00,,,0.00,VWS V14.01,2013-01-20 17:03:00,
2013-01-20 09:08:00,20.1,15.2,26.99,North,0,0.0,0.0,81,0.00,,,0.00,VWS V14.01,2013-01-20 17:08:00,
2013-01-20 09:13:00,19.4,14.2,26.99,North,0,0.0,0.0,80,0.00,,,0.00,VWS V14.01,2013-01-20 17:13:00,
2013-01-20 09:18:00,17.6,11.6,27.02,North,0,0.0,0.0,77,0.00,,,0.00,VWS V14.01,2013-01-20 17:18:00,
2013-01-20 09:23:00,18.3,12.3,27.02,North,0,0.0,0.0,77,0.00,,,0.00,VWS V14.01,2013-01-20 17:23:00,
2013-01-20 09:28:00,18.7,12.4,27.02,North,0,0.0,0.0,76,0.00,,,0.00,VWS V14.01,2013-01-20 17:28:00,
2013-01-20 09:33:00,19.0,13.0,27.02,North,0,0.0,0.0,77,0.00,,,0.00,VWS V14.01,2013-01-20 17:33:00,
2013-01-20 09:38:00,21.2,15.1,27.02,North,0,0.0,0.0,77,0.00,,,0.00,VWS V14.01,2013-01-20 17:38:00,
2013-01-20 09:43:00,21.7,15.6,27.02,North,0,0.0,0.0,77,0.00,,,0.00,VWS V14.01,2013-01-20 17:43:00,
2013-01-20 09:48:00,21.9,15.5,27.02,North,0,0.0,0.0,76,0.00,,,0.00,VWS V14.01,2013-01-20 17:48:00,
2013-01-20 09:53:00,21.4,12.8,27.02,North,0,0.0,0.0,69,0.00,,,0.00,VWS V14.01,2013-01-20 17:53:00,
2013-01-20 09:58:00,21.4,12.8,27.02,North,0,0.0,0.0,69,0.00,,,0.00,VWS V14.01,2013-01-20 17:58:00,
2013-01-20 10:03:00,21.7,14.1,27.02,North,0,0.0,0.0,72,0.00,,,0.00,VWS V14.01,2013-01-20 18:03:00,
2013-01-20 10:08:00,22.1,14.5,27.02,North,0,0.0,0.0,72,0.00,,,0.00,VWS V14.01,2013-01-20 18:08:00,
2013-01-20 10:13:00,22.3,14.6,27.02,North,0,0.0,0.0,72,0.00,,,0.00,VWS V14.01,2013-01-20 18:13:00,
2013-01-20 10:18:00,22.8,15.2,27.02,North,0,0.0,0.0,72,0.00,,,0.00,VWS V14.01,2013-01-20 18:18:00,
2013-01-20 10:23:00,24.6,17.5,27.02,North,0,0.0,0.0,74,0.00,,,0.00,VWS V14.01,2013-01-20 18:23:00,
2013-01-20 10:28:00,24.6,17.5,27.02,North,0,0.0,0.0,74,0.00,,,0.00,VWS V14.01,2013-01-20 18:28:00,
2013-01-20 10:33:00,25.7,18.3,26.99,North,0,0.0,0.0,73,0.00,,,0.00,VWS V14.01,2013-01-20 18:33:00,
2013-01-20 10:38:00,26.2,15.4,26.99,North,0,0.0,0.0,63,0.00,,,0.00,VWS V14.01,2013-01-20 18:38:00,
2013-01-20 10:43:00,26.4,16.3,26.99,North,0,0.0,0.0,65,0.00,,,0.00,VWS V14.01,2013-01-20 18:43:00,
2013-01-20 10:48:00,26.4,16.3,26.99,North,0,0.0,0.0,65,0.00,,,0.00,VWS V14.01,2013-01-20 18:48:00,
2013-01-20 10:53:00,25.2,12.5,26.99,North,0,0.0,0.0,58,0.00,,,0.00,VWS V14.01,2013-01-20 18:53:00,
2013-01-20 10:58:00,25.3,14.5,26.99,North,0,0.0,0.0,63,0.00,,,0.00,VWS V14.01,2013-01-20 18:58:00,
2013-01-20 11:03:00,26.4,16.6,26.99,North,0,0.0,0.0,66,0.00,,,0.00,VWS V14.01,2013-01-20 19:03:00,
2013-01-20 11:08:00,27.5,17.6,26.99,North,0,0.0,0.0,66,0.00,,,0.00,VWS V14.01,2013-01-20 19:08:00,
2013-01-20 11:13:00,27.5,17.6,26.99,North,0,0.0,0.0,66,0.00,,,0.00,VWS V14.01,2013-01-20 19:13:00,
2013-01-20 11:18:00,27.7,16.0,26.99,North,0,0.0,0.0,61,0.00,,,0.00,VWS V14.01,2013-01-20 19:18:00,
2013-01-20 11:23:00,27.7,16.0,26.99,North,0,0.0,0.0,61,0.00,,,0.00,VWS V14.01,2013-01-20 19:23:00,
2013-01-20 11:28:00,28.6,16.1,26.99,North,0,0.0,0.0,59,0.00,,,0.00,VWS V14.01,2013-01-20 19:28:00,
2013-01-20 11:33:00,29.1,16.6,26.99,North,0,0.0,0.0,59,0.00,,,0.00,VWS V14.01,2013-01-20 19:33:00,
2013-01-20 11:38:00,29.7,18.2,26.99,North,0,0.0,0.0,62,0.00,,,0.00,VWS V14.01,2013-01-20 19:38:00,
2013-01-20 11:43:00,29.7,18.2,26.99,North,0,0.0,0.0,62,0.00,,,0.00,VWS V14.01,2013-01-20 19:43:00,
2013-01-20 11:48:00,30.0,17.4,26.99,North,0,0.0,0.0,59,0.00,,,0.00,VWS V14.01,2013-01-20 19:48:00,
2013-01-20 11:53:00,30.0,17.4,26.99,North,0,0.0,0.0,59,0.00,,,0.00,VWS V14.01,2013-01-20 19:53:00,
2013-01-20 11:58:00,30.0,17.4,26.99,North,0,0.0,0.0,59,0.00,,,0.00,VWS V14.01,2013-01-20 19:58:00,
2013-01-20 12:03:00,30.0,17.4,26.99,North,0,0.0,0.0,59,0.00,,,0.00,VWS V14.01,2013-01-20 20:03:00,
2013-01-20 12:08:00,30.4,17.4,26.99,North,0,0.0,0.0,58,0.00,,,0.00,VWS V14.01,2013-01-20 20:08:00,
2013-01-20 12:13:00,30.4,16.6,26.99,North,0,0.0,0.0,56,0.00,,,0.00,VWS V14.01,2013-01-20 20:13:00,
2013-01-20 12:18:00,30.4,16.2,26.99,North,0,0.0,0.0,55,0.00,,,0.00,VWS V14.01,2013-01-20 20:18:00,
2013-01-20 12:23:00,30.4,16.2,26.99,North,0,0.0,0.0,55,0.00,,,0.00,VWS V14.01,2013-01-20 20:23:00,
2013-01-20 12:28:00,30.7,16.1,26.99,North,0,0.0,0.0,54,0.00,,,0.00,VWS V14.01,2013-01-20 20:28:00,
2013-01-20 12:33:00,30.9,16.2,26.96,North,0,0.0,0.0,54,0.00,,,0.00,VWS V14.01,2013-01-20 20:33:00,
2013-01-20 12:38:00,31.1,16.8,26.96,North,0,0.0,0.0,55,0.00,,,0.00,VWS V14.01,2013-01-20 20:38:00,
2013-01-20 12:43:00,31.1,16.8,26.96,North,0,0.0,0.0,55,0.00,,,0.00,VWS V14.01,2013-01-20 20:43:00,
2013-01-20 12:48:00,31.1,16.8,26.96,North,0,0.0,0.0,55,0.00,,,0.00,VWS V14.01,2013-01-20 20:48:00,
2013-01-20 12:53:00,31.1,16.8,26.96,North,0,0.0,0.0,55,0.00,,,0.00,VWS V14.01,2013-01-20 20:53:00,
2013-01-20 12:58:00,31.3,15.7,26.96,North,0,0.0,0.0,52,0.00,,,0.00,VWS V14.01,2013-01-20 20:58:00,
2013-01-20 13:03:00,31.5,15.9,26.96,North,0,0.0,0.0,52,0.00,,,0.00,VWS V14.01,2013-01-20 21:03:00,
2013-01-20 13:08:00,31.5,15.9,26.96,North,0,0.0,0.0,52,0.00,,,0.00,VWS V14.01,2013-01-20 21:08:00,
2013-01-20 13:13:00,31.5,15.9,26.96,North,0,0.0,0.0,52,0.00,,,0.00,VWS V14.01,2013-01-20 21:13:00,
2013-01-20 13:18:00,31.5,15.9,26.96,North,0,0.0,0.0,52,0.00,,,0.00,VWS V14.01,2013-01-20 21:18:00,
2013-01-20 13:23:00,32.0,16.4,26.96,North,0,0.0,0.0,52,0.00,,,0.00,VWS V14.01,2013-01-20 21:23:00,
2013-01-20 13:28:00,32.0,16.4,26.96,North,0,0.0,0.0,52,0.00,,,0.00,VWS V14.01,2013-01-20 21:28:00,
2013-01-20 13:33:00,32.2,16.5,26.96,North,0,0.0,0.0,52,0.00,,,0.00,VWS V14.01,2013-01-20 21:33:00,
2013-01-20 13:38:00,32.2,16.5,26.96,North,0,0.0,0.0,52,0.00,,,0.00,VWS V14.01,2013-01-20 21:38:00,
2013-01-20 13:43:00,32.2,16.5,26.96,North,0,0.0,0.0,52,0.00,,,0.00,VWS V14.01,2013-01-20 21:43:00,
2013-01-20 13:48:00,31.8,15.8,26.96,North,0,0.0,0.0,51,0.00,,,0.00,VWS V14.01,2013-01-20 21:48:00,
2013-01-20 13:53:00,32.0,15.9,26.96,North,0,0.0,0.0,51,0.00,,,0.00,VWS V14.01,2013-01-20 21:53:00,
2013-01-20 13:58:00,32.0,15.9,26.96,North,0,0.0,0.0,51,0.00,,,0.00,VWS V14.01,2013-01-20 21:58:00,
2013-01-20 14:03:00,32.2,15.6,26.96,North,0,0.0,0.0,50,0.00,,,0.00,VWS V14.01,2013-01-20 22:03:00,
2013-01-20 14:08:00,32.2,15.6,26.96,North,0,0.0,0.0,50,0.00,,,0.00,VWS V14.01,2013-01-20 22:08:00,
2013-01-20 14:13:00,31.5,14.5,26.96,North,0,0.0,0.0,49,0.00,,,0.00,VWS V14.01,2013-01-20 22:13:00,
2013-01-20 14:18:00,31.5,14.5,26.96,North,0,0.0,0.0,49,0.00,,,0.00,VWS V14.01,2013-01-20 22:18:00,
2013-01-20 14:23:00,31.5,14.5,26.96,North,0,0.0,0.0,49,0.00,,,0.00,VWS V14.01,2013-01-20 22:23:00,
2013-01-20 14:28:00,31.5,14.5,26.96,North,0,0.0,0.0,49,0.00,,,0.00,VWS V14.01,2013-01-20 22:28:00,
2013-01-20 14:33:00,30.9,14.9,26.96,North,0,0.0,0.0,51,0.00,,,0.00,VWS V14.01,2013-01-20 22:33:00,
2013-01-20 14:38:00,30.9,14.9,26.96,North,0,0.0,0.0,51,0.00,,,0.00,VWS V14.01,2013-01-20 22:38:00,
2013-01-20 14:43:00,31.3,15.3,26.96,North,0,0.0,0.0,51,0.00,,,0.00,VWS V14.01,2013-01-20 22:43:00,
2013-01-20 14:48:00,31.3,15.3,26.96,North,0,0.0,0.0,51,0.00,,,0.00,VWS V14.01,2013-01-20 22:48:00,
2013-01-20 14:53:00,31.3,15.3,26.96,North,0,0.0,0.0,51,0.00,,,0.00,VWS V14.01,2013-01-20 22:53:00,
2013-01-20 14:58:00,31.5,15.0,26.96,North,0,0.0,0.0,50,0.00,,,0.00,VWS V14.01,2013-01-20 22:58:00,
2013-01-20 15:03:00,31.5,15.0,26.96,North,0,0.0,0.0,50,0.00,,,0.00,VWS V14.01,2013-01-20 23:03:00,
2013-01-20 15:08:00,31.5,15.0,26.96,North,0,0.0,0.0,50,0.00,,,0.00,VWS V14.01,2013-01-20 23:08:00,
2013-01-20 15:13:00,31.5,15.0,26.96,North,0,0.0,0.0,50,0.00,,,0.00,VWS V14.01,2013-01-20 23:13:00,
2013-01-20 15:18:00,32.2,15.2,26.96,North,0,0.0,0.0,49,0.00,,,0.00,VWS V14.01,2013-01-20 23:18:00,
2013-01-20 15:23:00,32.2,15.2,26.96,North,0,0.0,0.0,49,0.00,,,0.00,VWS V14.01,2013-01-20 23:23:00,
2013-01-20 15:28:00,32.2,15.2,26.96,North,0,0.0,0.0,49,0.00,,,0.00,VWS V14.01,2013-01-20 23:28:00,
2013-01-20 15:33:00,32.2,15.2,26.96,North,0,0.0,0.0,49,0.00,,,0.00,VWS V14.01,2013-01-20 23:33:00,
2013-01-20 15:38:00,32.2,15.2,26.96,North,0,0.0,0.0,49,0.00,,,0.00,VWS V14.01,2013-01-20 23:38:00,
2013-01-20 15:43:00,30.0,14.1,26.96,North,0,0.0,0.0,51,0.00,,,0.00,VWS V14.01,2013-01-20 23:43:00,
2013-01-20 15:48:00,29.7,14.2,26.96,North,0,0.0,0.0,52,0.00,,,0.00,VWS V14.01,2013-01-20 23:48:00,
2013-01-20 15:53:00,29.7,14.2,26.96,North,0,0.0,0.0,52,0.00,,,0.00,VWS V14.01,2013-01-20 23:53:00,
2013-01-20 15:58:00,29.7,14.2,26.96,North,0,0.0,0.0,52,0.00,,,0.00,VWS V14.01,2013-01-20 23:58:00,
2013-01-20 16:03:00,29.7,14.2,26.96,North,0,0.0,0.0,52,0.00,,,0.00,VWS V14.01,2013-01-21 00:03:00,
2013-01-20 16:08:00,27.9,13.0,26.96,North,0,0.0,0.0,53,0.00,,,0.00,VWS V14.01,2013-01-21 00:08:00,
2013-01-20 16:13:00,27.9,13.0,26.96,North,0,0.0,0.0,53,0.00,,,0.00,VWS V14.01,2013-01-21 00:13:00,
2013-01-20 16:18:00,27.1,13.5,26.93,North,0,0.0,0.0,56,0.00,,,0.00,VWS V14.01,2013-01-21 00:18:00,
2013-01-20 16:23:00,27.1,13.5,26.93,North,0,0.0,0.0,56,0.00,,,0.00,VWS V14.01,2013-01-21 00:23:00,
2013-01-20 16:28:00,26.4,13.7,26.93,North,0,0.0,0.0,58,0.00,,,0.00,VWS V14.01,2013-01-21 00:28:00,
2013-01-20 16:33:00,26.1,12.5,26.93,North,0,0.0,0.0,56,0.00,,,0.00,VWS V14.01,2013-01-21 00:33:00,
2013-01-20 16:38:00,25.9,14.3,26.93,North,0,0.0,0.0,61,0.00,,,0.00,VWS V14.01,2013-01-21 00:38:00,
2013-01-20 16:43:00,25.9,14.3,26.93,North,0,0.0,0.0,61,0.00,,,0.00,VWS V14.01,2013-01-21 00:43:00,
2013-01-20 16:48:00,25.9,14.3,26.96,North,0,0.0,0.0,61,0.00,,,0.00,VWS V14.01,2013-01-21 00:48:00,
2013-01-20 16:53:00,26.1,14.8,26.96,North,0,0.0,0.0,62,0.00,,,0.00,VWS V14.01,2013-01-21 00:53:00,
2013-01-20 16:58:00,26.1,14.8,26.96,North,0,0.0,0.0,62,0.00,,,0.00,VWS V14.01,2013-01-21 00:58:00,
2013-01-20 17:03:00,26.1,14.8,26.96,North,0,0.0,0.0,62,0.00,,,0.00,VWS V14.01,2013-01-21 01:03:00,
2013-01-20 17:08:00,25.2,13.2,26.96,North,0,0.0,0.0,60,0.00,,,0.00,VWS V14.01,2013-01-21 01:08:00,
2013-01-20 17:13:00,25.2,13.2,26.96,North,0,0.0,0.0,60,0.00,,,0.00,VWS V14.01,2013-01-21 01:13:00,
2013-01-20 17:18:00,25.0,14.9,26.96,North,0,0.0,0.0,65,0.00,,,0.00,VWS V14.01,2013-01-21 01:18:00,
2013-01-20 17:23:00,24.8,14.7,26.96,North,0,0.0,0.0,65,0.00,,,0.00,VWS V14.01,2013-01-21 01:23:00,
2013-01-20 17:28:00,24.8,14.7,26.96,North,0,0.0,0.0,65,0.00,,,0.00,VWS V14.01,2013-01-21 01:28:00,
2013-01-20 17:33:00,24.8,14.7,26.96,North,0,0.0,0.0,65,0.00,,,0.00,VWS V14.01,2013-01-21 01:33:00,
2013-01-20 17:38:00,24.3,13.9,26.96,North,0,0.0,0.0,64,0.00,,,0.00,VWS V14.01,2013-01-21 01:38:00,
2013-01-20 17:43:00,24.3,14.2,26.96,North,0,0.0,0.0,65,0.00,,,0.00,VWS V14.01,2013-01-21 01:43:00,
2013-01-20 17:48:00,24.3,14.2,26.96,North,0,0.0,0.0,65,0.00,,,0.00,VWS V14.01,2013-01-21 01:48:00,
2013-01-20 17:53:00,24.1,14.0,26.96,North,0,0.0,0.0,65,0.00,,,0.00,VWS V14.01,2013-01-21 01:53:00,
2013-01-20 17:58:00,24.3,14.6,26.96,North,0,0.0,0.0,66,0.00,,,0.00,VWS V14.01,2013-01-21 01:58:00,
2013-01-20 18:03:00,24.4,15.4,26.96,North,0,0.0,0.0,68,0.00,,,0.00,VWS V14.01,2013-01-21 02:03:00,
2013-01-20 18:08:00,24.4,15.4,26.96,North,0,0.0,0.0,68,0.00,,,0.00,VWS V14.01,2013-01-21 02:08:00,
2013-01-20 18:13:00,24.6,15.2,26.96,North,0,0.0,0.0,67,0.00,,,0.00,VWS V14.01,2013-01-21 02:13:00,
2013-01-20 18:18:00,24.6,15.2,26.93,North,0,0.0,0.0,67,0.00,,,0.00,VWS V14.01,2013-01-21 02:18:00,
2013-01-20 18:23:00,23.9,14.6,26.93,North,0,0.0,0.0,67,0.00,,,0.00,VWS V14.01,2013-01-21 02:23:00,
2013-01-20 18:28:00,23.5,14.2,26.93,North,0,0.0,0.0,67,0.00,,,0.00,VWS V14.01,2013-01-21 02:28:00,
2013-01-20 18:33:00,23.5,14.2,26.93,North,0,0.0,0.0,67,0.00,,,0.00,VWS V14.01,2013-01-21 02:33:00,
2013-01-20 18:38:00,23.5,14.2,26.93,North,0,0.0,0.0,67,0.00,,,0.00,VWS V14.01,2013-01-21 02:38:00,
2013-01-20 18:43:00,23.4,14.7,26.93,North,0,0.0,0.0,69,0.00,,,0.00,VWS V14.01,2013-01-21 02:43:00,
2013-01-20 18:48:00,23.4,14.7,26.93,North,0,0.0,0.0,69,0.00,,,0.00,VWS V14.01,2013-01-21 02:48:00,
2013-01-20 18:53:00,23.7,15.4,26.93,North,0,0.0,0.0,70,0.00,,,0.00,VWS V14.01,2013-01-21 02:53:00,
2013-01-20 18:58:00,23.7,15.4,26.93,North,0,0.0,0.0,70,0.00,,,0.00,VWS V14.01,2013-01-21 02:58:00,
2013-01-20 19:03:00,23.4,14.4,26.93,North,0,0.0,0.0,68,0.00,,,0.00,VWS V14.01,2013-01-21 03:03:00,
2013-01-20 19:08:00,23.4,14.4,26.93,North,0,0.0,0.0,68,0.00,,,0.00,VWS V14.01,2013-01-21 03:08:00,
2013-01-20 19:13:00,22.8,14.8,26.93,North,0,0.0,0.0,71,0.00,,,0.00,VWS V14.01,2013-01-21 03:13:00,
2013-01-20 19:18:00,22.8,14.8,26.93,North,0,0.0,0.0,71,0.00,,,0.00,VWS V14.01,2013-01-21 03:18:00,
2013-01-20 19:23:00,22.8,15.5,26.93,North,0,0.0,0.0,73,0.00,,,0.00,VWS V14.01,2013-01-21 03:23:00,
2013-01-20 19:28:00,22.8,15.5,26.93,North,0,0.0,0.0,73,0.00,,,0.00,VWS V14.01,2013-01-21 03:28:00,
2013-01-20 19:33:00,22.6,15.0,26.93,North,0,0.0,0.0,72,0.00,,,0.00,VWS V14.01,2013-01-21 03:33:00,
2013-01-20 19:38:00,22.1,14.1,26.93,North,0,0.0,0.0,71,0.00,,,0.00,VWS V14.01,2013-01-21 03:38:00,
2013-01-20 19:43:00,22.1,14.1,26.93,North,0,0.0,0.0,71,0.00,,,0.00,VWS V14.01,2013-01-21 03:43:00,
2013-01-20 19:48:00,21.7,13.8,26.93,North,0,0.0,0.0,71,0.00,,,0.00,VWS V14.01,2013-01-21 03:48:00,
2013-01-20 19:53:00,21.7,13.8,26.93,North,0,0.0,0.0,71,0.00,,,0.00,VWS V14.01,2013-01-21 03:53:00,
2013-01-20 19:58:00,21.7,13.8,26.93,North,0,0.0,0.0,71,0.00,,,0.00,VWS V14.01,2013-01-21 03:58:00,
2013-01-20 20:03:00,21.7,14.1,26.93,North,0,0.0,0.0,72,0.00,,,0.00,VWS V14.01,2013-01-21 04:03:00,
2013-01-20 20:08:00,21.7,14.1,26.93,North,0,0.0,0.0,72,0.00,,,0.00,VWS V14.01,2013-01-21 04:08:00,
2013-01-20 20:13:00,21.7,14.1,26.93,North,0,0.0,0.0,72,0.00,,,0.00,VWS V14.01,2013-01-21 04:13:00,
2013-01-20 20:18:00,21.7,14.1,26.93,North,0,0.0,0.0,72,0.00,,,0.00,VWS V14.01,2013-01-21 04:18:00,
2013-01-20 20:23:00,21.7,14.4,26.93,North,0,0.0,0.0,73,0.00,,,0.00,VWS V14.01,2013-01-21 04:23:00,
2013-01-20 20:28:00,21.7,14.4,26.93,North,0,0.0,0.0,73,0.00,,,0.00,VWS V14.01,2013-01-21 04:28:00,
2013-01-20 20:33:00,21.7,14.4,26.93,North,0,0.0,0.0,73,0.00,,,0.00,VWS V14.01,2013-01-21 04:33:00,
2013-01-20 20:38:00,21.6,14.3,26.93,North,0,0.0,0.0,73,0.00,,,0.00,VWS V14.01,2013-01-21 04:38:00,
2013-01-20 20:43:00,21.9,14.9,26.93,North,0,0.0,0.0,74,0.00,,,0.00,VWS V14.01,2013-01-21 04:43:00,
2013-01-20 20:48:00,21.9,14.9,26.93,North,0,0.0,0.0,74,0.00,,,0.00,VWS V14.01,2013-01-21 04:48:00,
2013-01-20 20:53:00,22.1,15.1,26.93,North,0,0.0,0.0,74,0.00,,,0.00,VWS V14.01,2013-01-21 04:53:00,
2013-01-20 20:58:00,22.5,15.8,26.93,North,0,0.0,0.0,75,0.00,,,0.00,VWS V14.01,2013-01-21 04:58:00,
2013-01-20 21:00:00,22.5,15.8,26.93,North,0,0.0,0.0,75,0.00,,,0.00,VWS V14.01,2013-01-21 05:00:00,
2013-01-20 21:03:00,22.8,16.4,26.93,North,0,0.0,0.0,76,0.00,,,0.00,VWS V14.01,2013-01-21 05:03:00,
2013-01-20 21:08:00,23.0,16.6,26.93,North,0,0.0,0.0,76,0.00,,,0.00,VWS V14.01,2013-01-21 05:08:00,
2013-01-20 21:13:00,23.2,16.5,26.93,North,0,0.0,0.0,75,0.00,,,0.00,VWS V14.01,2013-01-21 05:13:00,
2013-01-20 21:18:00,22.8,15.8,26.93,North,0,0.0,0.0,74,0.00,,,0.00,VWS V14.01,2013-01-21 05:18:00,
2013-01-20 21:23:00,22.6,15.6,26.93,North,0,0.0,0.0,74,0.00,,,0.00,VWS V14.01,2013-01-21 05:23:00,
2013-01-20 21:28:00,22.3,15.6,26.93,North,0,0.0,0.0,75,0.00,,,0.00,VWS V14.01,2013-01-21 05:28:00,
2013-01-20 21:33:00,21.9,15.2,26.93,North,0,0.0,0.0,75,0.00,,,0.00,VWS V14.01,2013-01-21 05:33:00,
2013-01-20 21:38:00,22.1,16.3,26.93,North,0,0.0,0.0,78,0.00,,,0.00,VWS V14.01,2013-01-21 05:38:00,
2013-01-20 21:43:00,22.6,17.1,26.93,North,0,0.0,0.0,79,0.00,,,0.00,VWS V14.01,2013-01-21 05:43:00,
2013-01-20 21:48:00,23.0,17.5,26.93,North,0,0.0,0.0,79,0.00,,,0.00,VWS V14.01,2013-01-21 05:48:00,
2013-01-20 21:53:00,23.0,17.2,26.93,North,0,0.0,0.0,78,0.00,,,0.00,VWS V14.01,2013-01-21 05:53:00,
2013-01-20 21:58:00,22.8,16.7,26.93,North,0,0.0,0.0,77,0.00,,,0.00,VWS V14.01,2013-01-21 05:58:00,
2013-01-20 22:03:00,22.3,15.9,26.93,North,0,0.0,0.0,76,0.00,,,0.00,VWS V14.01,2013-01-21 06:03:00,
2013-01-20 22:08:00,22.3,15.9,26.93,North,0,0.0,0.0,76,0.00,,,0.00,VWS V14.01,2013-01-21 06:08:00,
2013-01-20 22:13:00,22.3,15.9,26.93,North,0,0.0,0.0,76,0.00,,,0.00,VWS V14.01,2013-01-21 06:13:00,
2013-01-20 22:18:00,22.3,16.2,26.93,North,0,0.0,0.0,77,0.00,,,0.00,VWS V14.01,2013-01-21 06:18:00,
2013-01-20 22:23:00,22.3,15.9,26.93,North,0,0.0,0.0,76,0.00,,,0.00,VWS V14.01,2013-01-21 06:23:00,
2013-01-20 22:28:00,22.1,15.7,26.93,North,0,0.0,0.0,76,0.00,,,0.00,VWS V14.01,2013-01-21 06:28:00,
2013-01-20 22:33:00,21.7,15.1,26.93,North,0,0.0,0.0,75,0.00,,,0.00,VWS V14.01,2013-01-21 06:33:00,
2013-01-20 22:38:00,21.7,15.4,26.93,North,0,0.0,0.0,76,0.00,,,0.00,VWS V14.01,2013-01-21 06:38:00,
2013-01-20 22:43:00,21.9,16.1,26.93,North,0,0.0,0.0,78,0.00,,,0.00,VWS V14.01,2013-01-21 06:43:00,
2013-01-20 22:48:00,21.9,15.8,26.93,North,0,0.0,0.0,77,0.00,,,0.00,VWS V14.01,2013-01-21 06:48:00,
2013-01-20 22:53:00,21.7,15.6,26.93,North,0,0.0,0.0,77,0.00,,,0.00,VWS V14.01,2013-01-21 06:53:00,
2013-01-20 22:58:00,21.7,15.6,26.93,North,0,0.0,0.0,77,0.00,,,0.00,VWS V14.01,2013-01-21 06:58:00,
2013-01-20 23:00:00,21.7,15.6,26.93,North,0,0.0,0.0,77,0.00,,,0.00,VWS V14.01,2013-01-21 07:00:00,
2013-01-20 23:01:00,21.7,15.6,26.93,North,0,0.0,0.0,77,0.00,,,0.00,VWS V14.01,2013-01-21 07:01:00,
2013-01-20 23:02:00,21.7,15.6,26.93,North,0,0.0,0.0,77,0.00,,,0.00,VWS V14.01,2013-01-21 07:02:00,
2013-01-20 23:03:00,21.7,15.6,26.93,North,0,0.0,0.0,77,0.00,,,0.00,VWS V14.01,2013-01-21 07:03:00,
2013-01-20 23:04:00,21.7,15.6,26.93,North,0,0.0,0.0,77,0.00,,,0.00,VWS V14.01,2013-01-21 07:04:00,
2013-01-20 23:05:00,21.6,15.5,26.93,North,0,0.0,0.0,77,0.00,,,0.00,VWS V14.01,2013-01-21 07:05:00,
2013-01-20 23:06:00,21.6,15.5,26.93,North,0,0.0,0.0,77,0.00,,,0.00,VWS V14.01,2013-01-21 07:06:00,
2013-01-20 23:07:00,21.6,15.5,26.93,North,0,0.0,0.0,77,0.00,,,0.00,VWS V14.01,2013-01-21 07:07:00,
2013-01-20 23:08:00,21.6,15.5,26.93,North,0,0.0,0.0,77,0.00,,,0.00,VWS V14.01,2013-01-21 07:08:00,
2013-01-20 23:09:00,21.6,15.5,26.93,North,0,0.0,0.0,77,0.00,,,0.00,VWS V14.01,2013-01-21 07:09:00,
2013-01-20 23:10:00,21.6,15.5,26.93,North,0,0.0,0.0,77,0.00,,,0.00,VWS V14.01,2013-01-21 07:10:00,
2013-01-20 23:11:00,21.6,15.5,26.93,North,0,0.0,0.0,77,0.00,,,0.00,VWS V14.01,2013-01-21 07:11:00,
2013-01-20 23:12:00,21.6,15.5,26.93,North,0,0.0,0.0,77,0.00,,,0.00,VWS V14.01,2013-01-21 07:12:00,
2013-01-20 23:13:00,21.6,15.5,26.93,North,0,0.0,0.0,77,0.00,,,0.00,VWS V14.01,2013-01-21 07:13:00,
2013-01-20 23:14:00,21.6,15.5,26.93,North,0,0.0,0.0,77,0.00,,,0.00,VWS V14.01,2013-01-21 07:14:00,
2013-01-20 23:15:00,21.6,15.5,26.93,North,0,0.0,0.0,77,0.00,,,0.00,VWS V14.01,2013-01-21 07:15:00,
2013-01-20 23:16:00,21.6,15.5,26.93,North,0,0.0,0.0,77,0.00,,,0.00,VWS V14.01,2013-01-21 07:16:00,
2013-01-20 23:17:00,21.7,15.6,26.93,North,0,0.0,0.0,77,0.00,,,0.00,VWS V14.01,2013-01-21 07:17:00,
2013-01-20 23:18:00,21.7,15.9,26.93,North,0,0.0,0.0,78,0.00,,,0.00,VWS V14.01,2013-01-21 07:18:00,
2013-01-20 23:19:00,21.7,15.9,26.93,North,0,0.0,0.0,78,0.00,,,0.00,VWS V14.01,2013-01-21 07:19:00,
2013-01-20 23:20:00,21.9,16.1,26.93,North,0,0.0,0.0,78,0.00,,,0.00,VWS V14.01,2013-01-21 07:20:00,
2013-01-20 23:21:00,21.9,16.1,26.93,North,0,0.0,0.0,78,0.00,,,0.00,VWS V14.01,2013-01-21 07:21:00,
2013-01-20 23:22:00,21.9,16.1,26.93,North,0,0.0,0.0,78,0.00,,,0.00,VWS V14.01,2013-01-21 07:22:00,
2013-01-20 23:23:00,21.9,16.1,26.93,North,0,0.0,0.0,78,0.00,,,0.00,VWS V14.01,2013-01-21 07:23:00,
2013-01-20 23:24:00,21.9,16.1,26.93,North,0,0.0,0.0,78,0.00,,,0.00,VWS V14.01,2013-01-21 07:24:00,
2013-01-20 23:25:00,21.9,16.4,26.93,North,0,0.0,0.0,79,0.00,,,0.00,VWS V14.01,2013-01-21 07:25:00,
2013-01-20 23:26:00,21.9,16.4,26.93,North,0,0.0,0.0,79,0.00,,,0.00,VWS V14.01,2013-01-21 07:26:00,
2013-01-20 23:27:00,22.1,16.6,26.93,North,0,0.0,0.0,79,0.00,,,0.00,VWS V14.01,2013-01-21 07:27:00,
2013-01-20 23:28:00,22.1,16.6,26.93,North,0,0.0,0.0,79,0.00,,,0.00,VWS V14.01,2013-01-21 07:28:00,
2013-01-20 23:29:00,22.1,16.6,26.93,North,0,0.0,0.0,79,0.00,,,0.00,VWS V14.01,2013-01-21 07:29:00,
2013-01-20 23:30:00,22.1,16.6,26.93,North,0,0.0,0.0,79,0.00,,,0.00,VWS V14.01,2013-01-21 07:30:00,
2013-01-20 23:31:00,22.1,16.6,26.93,North,0,0.0,0.0,79,0.00,,,0.00,VWS V14.01,2013-01-21 07:31:00,
2013-01-20 23:32:00,22.1,16.3,26.93,North,0,0.0,0.0,78,0.00,,,0.00,VWS V14.01,2013-01-21 07:32:00,
2013-01-20 23:33:00,21.9,16.1,26.93,North,0,0.0,0.0,78,0.00,,,0.00,VWS V14.01,2013-01-21 07:33:00,
2013-01-20 23:34:00,21.9,16.1,26.93,North,0,0.0,0.0,78,0.00,,,0.00,VWS V14.01,2013-01-21 07:34:00,
2013-01-20 23:35:00,21.9,16.1,26.93,North,0,0.0,0.0,78,0.00,,,0.00,VWS V14.01,2013-01-21 07:35:00,
2013-01-20 23:36:00,21.9,16.1,26.93,North,0,0.0,0.0,78,0.00,,,0.00,VWS V14.01,2013-01-21 07:36:00,
2013-01-20 23:37:00,21.7,15.9,26.93,North,0,0.0,0.0,78,0.00,,,0.00,VWS V14.01,2013-01-21 07:37:00,
2013-01-20 23:38:00,21.7,15.9,26.93,North,0,0.0,0.0,78,0.00,,,0.00,VWS V14.01,2013-01-21 07:38:00,
2013-01-20 23:39:00,21.7,15.9,26.93,North,0,0.0,0.0,78,0.00,,,0.00,VWS V14.01,2013-01-21 07:39:00,
2013-01-20 23:40:00,21.7,15.9,26.93,North,0,0.0,0.0,78,0.00,,,0.00,VWS V14.01,2013-01-21 07:40:00,
2013-01-20 23:41:00,21.6,15.8,26.90,North,0,0.0,0.0,78,0.00,,,0.00,VWS V14.01,2013-01-21 07:41:00,
2013-01-20 23:42:00,21.6,15.8,26.90,North,0,0.0,0.0,78,0.00,,,0.00,VWS V14.01,2013-01-21 07:42:00,
2013-01-20 23:43:00,21.6,15.8,26.90,North,0,0.0,0.0,78,0.00,,,0.00,VWS V14.01,2013-01-21 07:43:00,
2013-01-20 23:44:00,21.6,15.8,26.90,North,0,0.0,0.0,78,0.00,,,0.00,VWS V14.01,2013-01-21 07:44:00,
2013-01-20 23:45:00,21.6,15.8,26.90,North,0,0.0,0.0,78,0.00,,,0.00,VWS V14.01,2013-01-21 07:45:00,
2013-01-20 23:46:00,21.4,15.6,26.90,North,0,0.0,0.0,78,0.00,,,0.00,VWS V14.01,2013-01-21 07:46:00,
2013-01-20 23:47:00,21.4,15.6,26.90,North,0,0.0,0.0,78,0.00,,,0.00,VWS V14.01,2013-01-21 07:47:00,
2013-01-20 23:48:00,21.4,15.6,26.90,North,0,0.0,0.0,78,0.00,,,0.00,VWS V14.01,2013-01-21 07:48:00,
2013-01-20 23:49:00,21.2,15.4,26.90,North,0,0.0,0.0,78,0.00,,,0.00,VWS V14.01,2013-01-21 07:49:00,
2013-01-20 23:50:00,21.2,15.4,26.90,North,0,0.0,0.0,78,0.00,,,0.00,VWS V14.01,2013-01-21 07:50:00,
2013-01-20 23:51:00,21.2,15.4,26.90,North,0,0.0,0.0,78,0.00,,,0.00,VWS V14.01,2013-01-21 07:51:00,
2013-01-20 23:52:00,21.2,15.4,26.90,North,0,0.0,0.0,78,0.00,,,0.00,VWS V14.01,2013-01-21 07:52:00,
2013-01-20 23:53:00,21.2,15.4,26.90,North,0,0.0,0.0,78,0.00,,,0.00,VWS V14.01,2013-01-21 07:53:00,
2013-01-20 23:54:00,21.2,15.4,26.90,North,0,0.0,0.0,78,0.00,,,0.00,VWS V14.01,2013-01-21 07:54:00,
2013-01-20 23:55:00,21.2,15.4,26.90,North,0,0.0,0.0,78,0.00,,,0.00,VWS V14.01,2013-01-21 07:55:00,
2013-01-20 23:56:00,21.2,15.4,26.90,North,0,0.0,0.0,78,0.00,,,0.00,VWS V14.01,2013-01-21 07:56:00,
2013-01-20 23:57:00,21.0,15.2,26.90,North,0,0.0,0.0,78,0.00,,,0.00,VWS V14.01,2013-01-21 07:57:00,
2013-01-20 23:58:00,21.2,15.4,26.90,North,0,0.0,0.0,78,0.00,,,0.00,VWS V14.01,2013-01-21 07:58:00,
2013-01-20 23:59:00,21.2,15.7,26.90,North,0,0.0,0.0,79,0.00,,,0.00,VWS V14.01,2013-01-21 07:59:00,